Time,TemperatureF,DewpointF,PressureIn,WindDirection,WindDirectionDegrees,WindSpeedMPH,WindSpeedGustMPH,Humidity,HourlyPrecipIn,Conditions,Clouds,dailyrainin,SoftwareType,DateUTC
2013-01-21 00:00:00,11.3,5.8,30.06,SSW,203,2.0,2.0,78,0.00,,---,0.00,VWS V14.01,2013-01-21 05:00:00,
2013-01-21 00:01:00,11.3,5.8,30.06,SSW,203,2.0,2.0,78,0.00,,---,0.00,VWS V14.01,2013-01-21 05:01:00,
2013-01-21 00:07:00,11.3,5.8,30.06,SSW,203,2.0,3.0,78,0.00,,---,0.00,VWS V14.01,2013-01-21 05:07:00,
2013-01-21 00:10:00,11.3,5.8,30.06,SSW,203,1.0,3.0,78,0.00,,---,0.00,VWS V14.01,2013-01-21 05:10:00,
2013-01-21 00:12:00,11.3,5.8,30.06,SSW,203,0.0,2.0,78,0.00,,---,0.00,VWS V14.01,2013-01-21 05:12:00,
2013-01-21 00:17:00,11.3,5.8,30.06,SSW,203,0.0,3.0,78,0.00,,---,0.00,VWS V14.01,2013-01-21 05:17:00,
2013-01-21 00:20:00,11.3,5.8,30.06,SSW,203,1.0,3.0,78,0.00,,---,0.00,VWS V14.01,2013-01-21 05:20:00,
2013-01-21 00:22:00,11.3,6.1,30.06,SSW,203,2.0,2.0,79,0.00,,---,0.00,VWS V14.01,2013-01-21 05:22:00,
2013-01-21 00:27:00,11.3,6.1,30.06,SSW,203,0.0,2.0,79,0.00,,---,0.00,VWS V14.01,2013-01-21 05:27:00,
2013-01-21 00:30:00,11.3,6.1,30.05,SSW,203,1.0,3.0,79,0.00,,---,0.00,VWS V14.01,2013-01-21 05:30:00,
2013-01-21 00:32:00,11.3,6.1,30.05,SSW,203,1.0,2.0,79,0.00,,---,0.00,VWS V14.01,2013-01-21 05:32:00,
2013-01-21 00:37:00,11.3,6.1,30.05,SSW,203,1.0,2.0,79,0.00,,---,0.00,VWS V14.01,2013-01-21 05:37:00,
2013-01-21 00:40:00,11.3,6.3,30.05,SSW,203,0.0,2.0,80,0.00,,---,0.00,VWS V14.01,2013-01-21 05:40:00,
2013-01-21 00:42:00,11.3,6.1,30.05,SSW,203,1.0,2.0,79,0.00,,---,0.00,VWS V14.01,2013-01-21 05:42:00,
2013-01-21 00:47:00,11.3,6.1,30.05,SSW,203,2.0,3.0,79,0.00,,---,0.00,VWS V14.01,2013-01-21 05:47:00,
2013-01-21 00:50:00,11.3,6.3,30.04,SSW,203,2.0,3.0,80,0.00,,---,0.00,VWS V14.01,2013-01-21 05:50:00,
2013-01-21 00:52:00,11.3,6.3,30.04,SSW,203,0.0,3.0,80,0.00,,---,0.00,VWS V14.01,2013-01-21 05:52:00,
2013-01-21 00:57:00,11.3,6.3,30.04,SSW,203,1.0,3.0,80,0.00,,---,0.00,VWS V14.01,2013-01-21 05:57:00,
2013-01-21 01:00:00,11.3,6.3,30.04,SSW,203,1.0,3.0,80,0.00,,---,0.00,VWS V14.01,2013-01-21 06:00:00,
2013-01-21 01:02:00,11.2,6.2,30.04,SSW,203,2.0,3.0,80,0.00,,---,0.00,VWS V14.01,2013-01-21 06:02:00,
2013-01-21 01:07:00,11.1,6.4,30.03,SSW,203,1.0,3.0,81,0.00,,---,0.00,VWS V14.01,2013-01-21 06:07:00,
2013-01-21 01:10:00,11.1,6.4,30.03,SSW,203,2.0,3.0,81,0.00,,---,0.00,VWS V14.01,2013-01-21 06:10:00,
2013-01-21 01:12:00,11.1,6.4,30.03,SSW,203,2.0,3.0,81,0.00,,---,0.00,VWS V14.01,2013-01-21 06:12:00,
2013-01-21 01:17:00,11.1,6.4,30.03,SSW,203,0.0,3.0,81,0.00,,---,0.00,VWS V14.01,2013-01-21 06:17:00,
2013-01-21 01:20:00,11.1,6.4,30.03,SSW,203,0.0,3.0,81,0.00,,---,0.00,VWS V14.01,2013-01-21 06:20:00,
2013-01-21 01:22:00,11.1,6.4,30.03,SSW,203,0.0,3.0,81,0.00,,---,0.00,VWS V14.01,2013-01-21 06:22:00,
2013-01-21 01:27:00,11.1,6.4,30.03,SSW,203,2.0,3.0,81,0.00,,---,0.00,VWS V14.01,2013-01-21 06:27:00,
2013-01-21 01:30:00,11.1,6.4,30.03,SSW,203,1.0,3.0,81,0.00,,---,0.00,VWS V14.01,2013-01-21 06:30:00,
2013-01-21 01:32:00,11.2,6.8,30.02,SSW,203,1.0,3.0,82,0.00,,---,0.00,VWS V14.01,2013-01-21 06:32:00,
2013-01-21 01:38:00,11.2,6.5,30.02,SSW,203,1.0,18.0,81,0.00,,---,0.00,VWS V14.01,2013-01-21 06:38:00,
2013-01-21 01:40:00,11.1,6.4,30.02,SSW,203,0.0,18.0,81,0.00,,---,0.00,VWS V14.01,2013-01-21 06:40:00,
2013-01-21 01:43:00,11.1,6.4,30.02,SSW,203,1.0,3.0,81,0.00,,---,0.00,VWS V14.01,2013-01-21 06:43:00,
2013-01-21 01:48:00,11.2,6.5,30.02,SSW,203,1.0,3.0,81,0.00,,---,0.00,VWS V14.01,2013-01-21 06:48:00,
2013-01-21 01:50:00,11.1,6.4,30.02,SSW,203,1.0,3.0,81,0.00,,---,0.00,VWS V14.01,2013-01-21 06:50:00,
2013-01-21 01:53:00,11.1,6.4,30.02,SSW,203,2.0,3.0,81,0.00,,---,0.00,VWS V14.01,2013-01-21 06:53:00,
2013-01-21 01:58:00,11.1,6.7,30.02,SSW,203,0.0,3.0,82,0.00,,---,0.00,VWS V14.01,2013-01-21 06:58:00,
2013-01-21 02:00:00,11.1,6.4,30.02,SSW,203,0.0,3.0,81,0.00,,---,0.00,VWS V14.01,2013-01-21 07:00:00,
2013-01-21 02:03:00,11.1,6.4,30.02,SSW,203,1.0,3.0,81,0.00,,---,0.00,VWS V14.01,2013-01-21 07:03:00,
2013-01-21 02:08:00,11.1,6.7,30.02,SSW,203,0.0,3.0,82,0.00,,---,0.00,VWS V14.01,2013-01-21 07:08:00,
2013-01-21 02:10:00,11.1,6.7,30.02,SSW,203,0.0,3.0,82,0.00,,---,0.00,VWS V14.01,2013-01-21 07:10:00,
2013-01-21 02:13:00,11.1,6.7,30.02,SSW,203,1.0,2.0,82,0.00,,---,0.00,VWS V14.01,2013-01-21 07:13:00,
2013-01-21 02:18:00,11.1,6.4,30.02,SSW,203,0.0,2.0,81,0.00,,---,0.00,VWS V14.01,2013-01-21 07:18:00,
2013-01-21 02:20:00,11.1,6.4,30.02,SSW,203,0.0,2.0,81,0.00,,---,0.00,VWS V14.01,2013-01-21 07:20:00,
2013-01-21 02:23:00,11.1,6.4,30.02,SSW,203,0.0,3.0,81,0.00,,---,0.00,VWS V14.01,2013-01-21 07:23:00,
2013-01-21 02:28:00,11.2,6.5,30.02,SSW,203,0.0,3.0,81,0.00,,---,0.00,VWS V14.01,2013-01-21 07:28:00,
2013-01-21 02:30:00,11.2,6.5,30.02,West,280,1.0,4.0,81,0.00,,---,0.00,VWS V14.01,2013-01-21 07:30:00,
2013-01-21 02:33:00,11.3,6.9,30.02,West,278,2.0,5.0,82,0.00,,---,0.00,VWS V14.01,2013-01-21 07:33:00,
2013-01-21 02:38:00,11.3,6.6,30.02,West,278,2.0,5.0,81,0.00,,---,0.00,VWS V14.01,2013-01-21 07:38:00,
2013-01-21 02:40:00,11.3,6.6,30.02,West,278,2.0,5.0,81,0.00,,---,0.00,VWS V14.01,2013-01-21 07:40:00,
2013-01-21 02:43:00,11.3,6.9,30.02,West,278,2.0,3.0,82,0.00,,---,0.00,VWS V14.01,2013-01-21 07:43:00,
2013-01-21 02:48:00,11.1,6.4,30.01,West,278,0.0,4.0,81,0.00,,---,0.00,VWS V14.01,2013-01-21 07:48:00,
2013-01-21 02:50:00,11.1,6.4,30.01,West,278,1.0,4.0,81,0.00,,---,0.00,VWS V14.01,2013-01-21 07:50:00,
2013-01-21 02:53:00,11.1,6.4,30.01,West,278,0.0,3.0,81,0.00,,---,0.00,VWS V14.01,2013-01-21 07:53:00,
2013-01-21 02:58:00,11.1,6.4,30.01,West,278,0.0,3.0,81,0.00,,---,0.00,VWS V14.01,2013-01-21 07:58:00,
2013-01-21 03:00:00,11.1,6.4,30.01,West,278,0.0,3.0,81,0.00,,---,0.00,VWS V14.01,2013-01-21 08:00:00,
2013-01-21 03:03:00,11.0,6.3,30.01,West,278,0.0,0.0,81,0.00,,---,0.00,VWS V14.01,2013-01-21 08:03:00,
2013-01-21 03:08:00,10.9,6.2,30.01,West,278,2.0,3.0,81,0.00,,---,0.00,VWS V14.01,2013-01-21 08:08:00,
2013-01-21 03:10:00,11.0,6.3,30.01,West,278,0.0,3.0,81,0.00,,---,0.00,VWS V14.01,2013-01-21 08:10:00,
2013-01-21 03:13:00,11.0,6.3,30.01,West,278,2.0,3.0,81,0.00,,---,0.00,VWS V14.01,2013-01-21 08:13:00,
2013-01-21 03:18:00,11.0,6.3,30.01,West,278,0.0,3.0,81,0.00,,---,0.00,VWS V14.01,2013-01-21 08:18:00,
2013-01-21 03:20:00,11.0,6.3,30.00,West,278,1.0,3.0,81,0.00,,---,0.00,VWS V14.01,2013-01-21 08:20:00,
2013-01-21 03:23:00,11.0,6.3,30.00,West,278,1.0,2.0,81,0.00,,---,0.00,VWS V14.01,2013-01-21 08:23:00,
2013-01-21 03:28:00,11.0,6.3,30.00,West,278,0.0,3.0,81,0.00,,---,0.00,VWS V14.01,2013-01-21 08:28:00,
2013-01-21 03:30:00,11.0,6.3,30.00,West,278,1.0,3.0,81,0.00,,---,0.00,VWS V14.01,2013-01-21 08:30:00,
2013-01-21 03:33:00,11.0,6.3,30.00,West,278,0.0,3.0,81,0.00,,---,0.00,VWS V14.01,2013-01-21 08:33:00,
2013-01-21 03:38:00,10.8,6.1,29.99,West,278,2.0,3.0,81,0.00,,---,0.00,VWS V14.01,2013-01-21 08:38:00,
2013-01-21 03:40:00,10.8,6.1,29.99,West,278,1.0,3.0,81,0.00,,---,0.00,VWS V14.01,2013-01-21 08:40:00,
2013-01-21 03:43:00,10.8,6.1,29.99,West,278,0.0,2.0,81,0.00,,---,0.00,VWS V14.01,2013-01-21 08:43:00,
2013-01-21 03:48:00,10.8,6.4,29.99,West,278,1.0,3.0,82,0.00,,---,0.00,VWS V14.01,2013-01-21 08:48:00,
2013-01-21 03:50:00,10.8,6.4,29.99,West,278,2.0,3.0,82,0.00,,---,0.00,VWS V14.01,2013-01-21 08:50:00,
2013-01-21 03:53:00,10.8,6.1,29.99,West,278,1.0,3.0,81,0.00,,---,0.00,VWS V14.01,2013-01-21 08:53:00,
2013-01-21 03:58:00,10.8,6.1,29.98,West,278,3.0,3.0,81,0.00,,---,0.00,VWS V14.01,2013-01-21 08:58:00,
2013-01-21 04:00:00,10.8,6.4,29.98,West,278,0.0,3.0,82,0.00,,---,0.00,VWS V14.01,2013-01-21 09:00:00,
2013-01-21 04:03:00,10.8,6.4,29.98,West,278,0.0,2.0,82,0.00,,---,0.00,VWS V14.01,2013-01-21 09:03:00,
2013-01-21 04:08:00,10.9,6.5,29.98,West,278,1.0,3.0,82,0.00,,---,0.00,VWS V14.01,2013-01-21 09:08:00,
2013-01-21 04:10:00,11.0,6.3,29.98,West,278,1.0,3.0,81,0.00,,---,0.00,VWS V14.01,2013-01-21 09:10:00,
2013-01-21 04:13:00,10.9,6.5,29.98,West,278,0.0,3.0,82,0.00,,---,0.00,VWS V14.01,2013-01-21 09:13:00,
2013-01-21 04:18:00,11.0,6.6,29.97,West,278,2.0,5.0,82,0.00,,---,0.00,VWS V14.01,2013-01-21 09:18:00,
2013-01-21 04:20:00,10.9,6.2,29.97,West,278,2.0,5.0,81,0.00,,---,0.00,VWS V14.01,2013-01-21 09:20:00,
2013-01-21 04:23:00,11.0,6.3,29.97,West,279,5.0,9.0,81,0.00,,---,0.00,VWS V14.01,2013-01-21 09:23:00,
2013-01-21 04:28:00,11.0,6.3,29.97,West,267,3.0,9.0,81,0.00,,---,0.00,VWS V14.01,2013-01-21 09:28:00,
2013-01-21 04:30:00,11.0,6.3,29.97,West,278,3.0,9.0,81,0.00,,---,0.00,VWS V14.01,2013-01-21 09:30:00,
2013-01-21 04:33:00,11.0,6.3,29.97,West,278,2.0,5.0,81,0.00,,---,0.00,VWS V14.01,2013-01-21 09:33:00,
2013-01-21 04:38:00,11.0,6.3,29.96,West,273,2.0,7.0,81,0.00,,---,0.00,VWS V14.01,2013-01-21 09:38:00,
2013-01-21 04:40:00,11.0,6.3,29.97,West,279,2.0,7.0,81,0.00,,---,0.00,VWS V14.01,2013-01-21 09:40:00,
2013-01-21 04:43:00,11.0,6.3,29.96,WNW,298,6.0,11.0,81,0.00,,---,0.00,VWS V14.01,2013-01-21 09:43:00,
2013-01-21 04:48:00,11.0,6.6,29.96,West,275,2.0,11.0,82,0.00,,---,0.00,VWS V14.01,2013-01-21 09:48:00,
2013-01-21 04:50:00,11.0,6.3,29.96,West,260,2.0,11.0,81,0.00,,---,0.00,VWS V14.01,2013-01-21 09:50:00,
2013-01-21 04:54:00,11.0,6.3,29.96,WSW,244,4.0,9.0,81,0.00,,---,0.00,VWS V14.01,2013-01-21 09:54:00,
2013-01-21 04:59:00,10.8,5.9,29.96,WNW,282,5.0,9.0,80,0.00,,---,0.00,VWS V14.01,2013-01-21 09:59:00,
2013-01-21 05:00:00,10.8,5.9,29.96,West,274,3.0,9.0,80,0.00,,---,0.00,VWS V14.01,2013-01-21 10:00:00,
2013-01-21 05:04:00,10.8,5.9,29.96,WNW,303,3.0,8.0,80,0.00,,---,0.00,VWS V14.01,2013-01-21 10:04:00,
2013-01-21 05:09:00,10.6,5.9,29.96,WSW,254,2.0,8.0,81,0.00,,---,0.00,VWS V14.01,2013-01-21 10:09:00,
2013-01-21 05:10:00,10.6,5.9,29.96,SSW,209,4.0,8.0,81,0.00,,---,0.00,VWS V14.01,2013-01-21 10:10:00,
2013-01-21 05:14:00,10.6,5.9,29.96,WSW,256,6.0,8.0,81,0.00,,---,0.00,VWS V14.01,2013-01-21 10:14:00,
2013-01-21 05:19:00,10.6,5.7,29.96,WNW,297,4.0,9.0,80,0.00,,---,0.00,VWS V14.01,2013-01-21 10:19:00,
2013-01-21 05:20:00,10.4,5.5,29.96,SW,216,0.0,9.0,80,0.00,,---,0.00,VWS V14.01,2013-01-21 10:20:00,
2013-01-21 05:24:00,10.5,5.8,29.96,West,269,4.0,10.0,81,0.00,,---,0.00,VWS V14.01,2013-01-21 10:24:00,
2013-01-21 05:29:00,10.5,5.6,29.96,West,271,2.0,10.0,80,0.00,,---,0.00,VWS V14.01,2013-01-21 10:29:00,
2013-01-21 05:30:00,10.5,5.6,29.96,West,271,1.0,10.0,80,0.00,,---,0.00,VWS V14.01,2013-01-21 10:30:00,
2013-01-21 05:34:00,10.3,5.4,29.95,West,265,4.0,9.0,80,0.00,,---,0.00,VWS V14.01,2013-01-21 10:34:00,
2013-01-21 05:39:00,10.1,4.9,29.95,WSW,255,1.0,9.0,79,0.00,,---,0.00,VWS V14.01,2013-01-21 10:39:00,
2013-01-21 05:40:00,10.1,4.9,29.95,West,270,1.0,9.0,79,0.00,,---,0.00,VWS V14.01,2013-01-21 10:40:00,
2013-01-21 05:44:00,10.1,4.6,29.95,West,277,5.0,8.0,78,0.00,,---,0.00,VWS V14.01,2013-01-21 10:44:00,
2013-01-21 05:49:00,9.9,4.4,29.95,West,259,1.0,8.0,78,0.00,,---,0.00,VWS V14.01,2013-01-21 10:49:00,
2013-01-21 05:50:00,10.0,4.5,29.95,NW,312,5.0,8.0,78,0.00,,---,0.00,VWS V14.01,2013-01-21 10:50:00,
2013-01-21 05:54:00,9.9,4.4,29.95,WSW,243,1.0,8.0,78,0.00,,---,0.00,VWS V14.01,2013-01-21 10:54:00,
2013-01-21 05:59:00,10.0,4.2,29.95,SW,234,4.0,8.0,77,0.00,,---,0.00,VWS V14.01,2013-01-21 10:59:00,
2013-01-21 06:00:00,9.9,4.2,29.95,WSW,252,4.0,8.0,77,0.00,,---,0.00,VWS V14.01,2013-01-21 11:00:00,
2013-01-21 06:04:00,9.9,4.4,29.95,West,271,3.0,11.0,78,0.00,,---,0.00,VWS V14.01,2013-01-21 11:04:00,
2013-01-21 06:09:00,9.7,4.2,29.95,West,262,4.0,11.0,78,0.00,,---,0.00,VWS V14.01,2013-01-21 11:09:00,
2013-01-21 06:10:00,9.7,4.2,29.95,West,266,4.0,11.0,78,0.00,,---,0.00,VWS V14.01,2013-01-21 11:10:00,
2013-01-21 06:14:00,9.7,4.2,29.95,West,267,2.0,9.0,78,0.00,,---,0.00,VWS V14.01,2013-01-21 11:14:00,
2013-01-21 06:19:00,9.7,4.2,29.95,WSW,257,2.0,10.0,78,0.00,,---,0.00,VWS V14.01,2013-01-21 11:19:00,
2013-01-21 06:20:00,9.7,4.2,29.95,West,271,6.0,10.0,78,0.00,,---,0.00,VWS V14.01,2013-01-21 11:20:00,
2013-01-21 06:24:00,9.7,4.2,29.95,West,264,2.0,8.0,78,0.00,,---,0.00,VWS V14.01,2013-01-21 11:24:00,
2013-01-21 06:29:00,9.5,4.3,29.95,WSW,258,7.0,8.0,79,0.00,,---,0.00,VWS V14.01,2013-01-21 11:29:00,
2013-01-21 06:30:00,9.5,4.3,29.95,WSW,258,4.0,8.0,79,0.00,,---,0.00,VWS V14.01,2013-01-21 11:30:00,
2013-01-21 06:34:00,9.5,4.3,29.95,WNW,287,4.0,10.0,79,0.00,,---,0.00,VWS V14.01,2013-01-21 11:34:00,
2013-01-21 06:39:00,9.5,4.3,29.95,West,272,1.0,10.0,79,0.00,,---,0.00,VWS V14.01,2013-01-21 11:39:00,
2013-01-21 06:40:00,9.5,4.3,29.95,WSW,248,8.0,10.0,79,0.00,,---,0.00,VWS V14.01,2013-01-21 11:40:00,
2013-01-21 06:44:00,9.5,4.3,29.95,WSW,246,3.0,8.0,79,0.00,,---,0.00,VWS V14.01,2013-01-21 11:44:00,
2013-01-21 06:49:00,9.4,4.2,29.95,West,265,6.0,8.0,79,0.00,,---,0.00,VWS V14.01,2013-01-21 11:49:00,
2013-01-21 06:50:00,9.4,4.2,29.95,WSW,251,5.0,8.0,79,0.00,,---,0.00,VWS V14.01,2013-01-21 11:50:00,
2013-01-21 06:54:00,9.4,4.2,29.95,West,269,4.0,10.0,79,0.00,,---,0.00,VWS V14.01,2013-01-21 11:54:00,
2013-01-21 06:59:00,9.4,4.2,29.94,WNW,301,2.0,10.0,79,0.00,,---,0.00,VWS V14.01,2013-01-21 11:59:00,
2013-01-21 07:00:00,9.4,4.2,29.94,West,278,6.0,10.0,79,0.00,,---,0.00,VWS V14.01,2013-01-21 12:00:00,
2013-01-21 07:04:00,9.4,4.2,29.95,SW,236,4.0,7.0,79,0.00,,---,0.00,VWS V14.01,2013-01-21 12:04:00,
2013-01-21 07:09:00,9.4,4.2,29.94,WSW,245,6.0,7.0,79,0.00,,---,0.00,VWS V14.01,2013-01-21 12:09:00,
2013-01-21 07:10:00,9.4,4.2,29.94,West,259,4.0,7.0,79,0.00,,---,0.00,VWS V14.01,2013-01-21 12:10:00,
2013-01-21 07:14:00,9.4,4.2,29.94,West,274,2.0,9.0,79,0.00,,---,0.00,VWS V14.01,2013-01-21 12:14:00,
2013-01-21 07:19:00,9.2,4.3,29.94,West,271,1.0,11.0,80,0.00,,---,0.00,VWS V14.01,2013-01-21 12:19:00,
2013-01-21 07:20:00,9.2,4.0,29.94,West,271,1.0,11.0,79,0.00,,---,0.00,VWS V14.01,2013-01-21 12:20:00,
2013-01-21 07:24:00,9.2,4.3,29.94,WSW,252,4.0,8.0,80,0.00,,---,0.00,VWS V14.01,2013-01-21 12:24:00,
2013-01-21 07:29:00,9.2,4.0,29.94,WSW,255,3.0,8.0,79,0.00,,---,0.00,VWS V14.01,2013-01-21 12:29:00,
2013-01-21 07:30:00,9.2,4.0,29.94,WSW,253,2.0,8.0,79,0.00,,---,0.00,VWS V14.01,2013-01-21 12:30:00,
2013-01-21 07:34:00,9.2,4.0,29.94,WSW,243,5.0,6.0,79,0.00,,---,0.00,VWS V14.01,2013-01-21 12:34:00,
2013-01-21 07:39:00,9.2,4.3,29.94,West,269,3.0,6.0,80,0.00,,---,0.00,VWS V14.01,2013-01-21 12:39:00,
2013-01-21 07:40:00,9.2,4.0,29.94,West,265,5.0,6.0,79,0.00,,---,0.00,VWS V14.01,2013-01-21 12:40:00,
2013-01-21 07:44:00,9.0,3.8,29.94,WSW,257,3.0,5.0,79,0.00,,---,0.00,VWS V14.01,2013-01-21 12:44:00,
2013-01-21 07:49:00,9.0,3.8,29.94,WSW,255,1.0,8.0,79,0.00,,---,0.00,VWS V14.01,2013-01-21 12:49:00,
2013-01-21 07:50:00,9.0,3.8,29.94,WSW,254,0.0,8.0,79,0.00,,---,0.00,VWS V14.01,2013-01-21 12:50:00,
2013-01-21 07:54:00,9.0,4.1,29.93,WSW,258,2.0,6.0,80,0.00,,---,0.00,VWS V14.01,2013-01-21 12:54:00,
2013-01-21 07:59:00,9.0,4.1,29.93,WSW,258,1.0,6.0,80,0.00,,---,0.00,VWS V14.01,2013-01-21 12:59:00,
2013-01-21 08:00:00,9.0,4.1,29.93,WSW,258,3.0,6.0,80,0.00,,---,0.00,VWS V14.01,2013-01-21 13:00:00,
2013-01-21 08:04:00,8.8,3.9,29.93,WSW,258,2.0,4.0,80,0.00,,---,0.00,VWS V14.01,2013-01-21 13:04:00,
2013-01-21 08:09:00,8.8,3.9,29.93,West,278,3.0,5.0,80,0.00,,---,0.00,VWS V14.01,2013-01-21 13:09:00,
2013-01-21 08:10:00,8.8,3.9,29.93,West,280,3.0,5.0,80,0.00,,---,0.00,VWS V14.01,2013-01-21 13:10:00,
2013-01-21 08:14:00,9.0,4.1,29.93,WNW,292,2.0,7.0,80,0.00,,---,0.00,VWS V14.01,2013-01-21 13:14:00,
2013-01-21 08:19:00,9.0,4.1,29.93,NW,313,1.0,7.0,80,0.00,,---,0.00,VWS V14.01,2013-01-21 13:19:00,
2013-01-21 08:20:00,9.0,4.1,29.93,NW,313,1.0,7.0,80,0.00,,---,0.00,VWS V14.01,2013-01-21 13:20:00,
2013-01-21 08:24:00,9.0,4.4,29.93,North,0,1.0,7.0,81,0.00,,---,0.00,VWS V14.01,2013-01-21 13:24:00,
2013-01-21 08:30:00,8.8,3.9,29.94,NNW,335,2.0,9.0,80,0.00,,---,0.00,VWS V14.01,2013-01-21 13:30:00,
2013-01-21 08:35:00,8.7,3.5,29.93,WSW,257,3.0,7.0,79,0.00,,---,0.00,VWS V14.01,2013-01-21 13:35:00,
2013-01-21 08:40:00,8.7,3.5,29.93,WNW,286,4.0,7.0,79,0.00,,---,0.00,VWS V14.01,2013-01-21 13:40:00,
2013-01-21 08:45:00,8.5,3.6,29.93,West,264,3.0,8.0,80,0.00,,---,0.00,VWS V14.01,2013-01-21 13:45:00,
2013-01-21 08:50:00,8.5,3.6,29.93,NW,311,5.0,8.0,80,0.00,,---,0.00,VWS V14.01,2013-01-21 13:50:00,
2013-01-21 08:55:00,8.5,3.3,29.93,NW,323,3.0,7.0,79,0.00,,---,0.00,VWS V14.01,2013-01-21 13:55:00,
2013-01-21 09:00:00,8.5,3.3,29.93,West,280,5.0,7.0,79,0.00,,---,0.00,VWS V14.01,2013-01-21 14:00:00,
2013-01-21 09:05:00,8.5,3.3,29.93,WNW,284,1.0,7.0,79,0.00,,---,0.00,VWS V14.01,2013-01-21 14:05:00,
2013-01-21 09:10:00,8.7,3.5,29.93,WNW,284,2.0,7.0,79,0.00,,---,0.00,VWS V14.01,2013-01-21 14:10:00,
2013-01-21 09:15:00,8.7,3.5,29.93,NW,314,1.0,10.0,79,0.00,,---,0.00,VWS V14.01,2013-01-21 14:15:00,
2013-01-21 09:20:00,8.6,3.4,29.93,WNW,285,2.0,3.0,79,0.00,,---,0.00,VWS V14.01,2013-01-21 14:20:00,
2013-01-21 09:25:00,8.7,3.5,29.93,NW,316,2.0,7.0,79,0.00,,---,0.00,VWS V14.01,2013-01-21 14:25:00,
2013-01-21 09:30:00,8.8,3.6,29.93,NW,311,2.0,2.0,79,0.00,,---,0.00,VWS V14.01,2013-01-21 14:30:00,
2013-01-21 09:35:00,8.8,3.6,29.93,NW,313,4.0,7.0,79,0.00,,---,0.00,VWS V14.01,2013-01-21 14:35:00,
2013-01-21 09:40:00,8.8,3.4,29.93,WNW,301,1.0,1.0,78,0.00,,---,0.00,VWS V14.01,2013-01-21 14:40:00,
2013-01-21 09:45:00,9.0,3.5,29.93,NW,312,4.0,5.0,78,0.00,,---,0.00,VWS V14.01,2013-01-21 14:45:00,
2013-01-21 09:50:00,9.0,3.3,29.93,NW,304,3.0,3.0,77,0.00,,---,0.00,VWS V14.01,2013-01-21 14:50:00,
2013-01-21 09:55:00,9.0,3.0,29.93,WNW,286,3.0,11.0,76,0.00,,---,0.00,VWS V14.01,2013-01-21 14:55:00,
2013-01-21 10:00:00,9.1,3.1,29.93,NW,318,3.0,5.0,76,0.00,,---,0.00,VWS V14.01,2013-01-21 15:00:00,
2013-01-21 10:05:00,9.0,2.7,29.93,North,7,4.0,11.0,75,0.00,,---,0.00,VWS V14.01,2013-01-21 15:05:00,
2013-01-21 10:10:00,9.0,2.7,29.94,NW,315,10.0,10.0,75,0.00,,---,0.00,VWS V14.01,2013-01-21 15:10:00,
2013-01-21 10:15:00,9.0,2.7,29.94,West,276,3.0,10.0,75,0.00,,---,0.00,VWS V14.01,2013-01-21 15:15:00,
2013-01-21 10:20:00,9.0,2.4,29.93,NNW,336,4.0,4.0,74,0.00,,---,0.00,VWS V14.01,2013-01-21 15:20:00,
2013-01-21 10:25:00,9.0,2.7,29.94,WNW,293,3.0,11.0,75,0.00,,---,0.00,VWS V14.01,2013-01-21 15:25:00,
2013-01-21 10:30:00,8.8,2.5,29.94,WNW,298,4.0,6.0,75,0.00,,---,0.00,VWS V14.01,2013-01-21 15:30:00,
2013-01-21 10:35:00,8.8,2.8,29.94,WNW,287,3.0,9.0,76,0.00,,---,0.00,VWS V14.01,2013-01-21 15:35:00,
2013-01-21 10:40:00,9.0,3.0,29.94,WNW,298,6.0,6.0,76,0.00,,---,0.00,VWS V14.01,2013-01-21 15:40:00,
2013-01-21 10:45:00,9.0,2.7,29.94,NW,315,4.0,7.0,75,0.00,,---,0.00,VWS V14.01,2013-01-21 15:45:00,
2013-01-21 10:50:00,9.0,3.0,29.94,WNW,294,2.0,5.0,76,0.00,,---,0.00,VWS V14.01,2013-01-21 15:50:00,
2013-01-21 10:55:00,9.0,3.0,29.94,WNW,287,3.0,9.0,76,0.00,,---,0.00,VWS V14.01,2013-01-21 15:55:00,
2013-01-21 11:00:00,9.0,3.0,29.94,NNW,337,2.0,3.0,76,0.00,,---,0.00,VWS V14.01,2013-01-21 16:00:00,
2013-01-21 11:05:00,9.0,3.0,29.94,NW,320,3.0,7.0,76,0.00,,---,0.00,VWS V14.01,2013-01-21 16:05:00,
2013-01-21 11:10:00,9.0,2.7,29.94,NW,318,6.0,6.0,75,0.00,,---,0.00,VWS V14.01,2013-01-21 16:10:00,
2013-01-21 11:15:00,9.0,3.0,29.94,WNW,303,5.0,7.0,76,0.00,,---,0.00,VWS V14.01,2013-01-21 16:15:00,
2013-01-21 11:20:00,8.8,2.5,29.94,WNW,289,1.0,3.0,75,0.00,,---,0.00,VWS V14.01,2013-01-21 16:20:00,
2013-01-21 11:25:00,8.7,2.4,29.94,WSW,258,6.0,9.0,75,0.00,,---,0.00,VWS V14.01,2013-01-21 16:25:00,
2013-01-21 11:30:00,8.6,2.3,29.94,NW,310,7.0,7.0,75,0.00,,---,0.00,VWS V14.01,2013-01-21 16:30:00,
2013-01-21 11:35:00,8.5,1.9,29.94,WNW,282,4.0,11.0,74,0.00,,---,0.00,VWS V14.01,2013-01-21 16:35:00,
2013-01-21 11:40:00,8.3,2.0,29.94,NW,314,2.0,4.0,75,0.00,,---,0.00,VWS V14.01,2013-01-21 16:40:00,
2013-01-21 11:45:00,8.3,2.3,29.94,NW,313,3.0,7.0,76,0.00,,---,0.00,VWS V14.01,2013-01-21 16:45:00,
2013-01-21 11:50:00,8.5,2.5,29.94,NNW,345,3.0,9.0,76,0.00,,---,0.00,VWS V14.01,2013-01-21 16:50:00,
2013-01-21 11:55:00,8.3,2.3,29.94,West,266,5.0,9.0,76,0.00,,---,0.00,VWS V14.01,2013-01-21 16:55:00,
2013-01-21 12:00:00,8.3,2.0,29.94,WNW,286,7.0,8.0,75,0.00,,---,0.00,VWS V14.01,2013-01-21 17:00:00,
2013-01-21 12:05:00,8.3,2.0,29.94,WNW,295,2.0,14.0,75,0.00,,---,0.00,VWS V14.01,2013-01-21 17:05:00,
2013-01-21 12:10:00,8.0,1.5,29.93,North,351,7.0,7.0,74,0.00,,---,0.00,VWS V14.01,2013-01-21 17:10:00,
2013-01-21 12:15:00,7.9,1.6,29.93,WNW,302,10.0,11.0,75,0.00,,---,0.00,VWS V14.01,2013-01-21 17:15:00,
2013-01-21 12:20:00,7.8,1.8,29.93,NNW,333,5.0,7.0,76,0.00,,---,0.00,VWS V14.01,2013-01-21 17:20:00,
2013-01-21 12:25:00,7.8,1.5,29.93,WNW,294,4.0,12.0,75,0.00,,---,0.00,VWS V14.01,2013-01-21 17:25:00,
2013-01-21 12:30:00,7.8,1.5,29.93,NW,308,7.0,10.0,75,0.00,,---,0.00,VWS V14.01,2013-01-21 17:30:00,
2013-01-21 12:35:00,7.6,1.4,29.93,NW,317,6.0,14.0,75,0.00,,---,0.00,VWS V14.01,2013-01-21 17:35:00,
2013-01-21 12:40:00,7.6,1.4,29.93,NNW,346,5.0,5.0,75,0.00,,---,0.00,VWS V14.01,2013-01-21 17:40:00,
2013-01-21 12:45:00,7.6,1.4,29.93,NW,307,2.0,11.0,75,0.00,,---,0.00,VWS V14.01,2013-01-21 17:45:00,
2013-01-21 12:50:00,7.4,1.1,29.93,NNW,338,6.0,9.0,75,0.00,,---,0.00,VWS V14.01,2013-01-21 17:50:00,
2013-01-21 12:55:00,7.6,1.4,29.93,WNW,298,3.0,11.0,75,0.00,,---,0.00,VWS V14.01,2013-01-21 17:55:00,
2013-01-21 13:00:00,7.6,1.4,29.93,SW,228,5.0,5.0,75,0.00,,---,0.00,VWS V14.01,2013-01-21 18:00:00,
2013-01-21 13:05:00,7.4,1.1,29.93,WNW,286,6.0,11.0,75,0.00,,---,0.00,VWS V14.01,2013-01-21 18:05:00,
2013-01-21 13:10:00,7.5,1.2,29.93,NNW,348,4.0,11.0,75,0.00,,---,0.00,VWS V14.01,2013-01-21 18:10:00,
2013-01-21 13:15:00,7.2,0.7,29.93,NW,313,4.0,11.0,74,0.00,,---,0.00,VWS V14.01,2013-01-21 18:15:00,
2013-01-21 13:20:00,7.2,0.1,29.92,WSW,253,4.0,10.0,72,0.00,,---,0.00,VWS V14.01,2013-01-21 18:20:00,
2013-01-21 13:25:00,7.3,-0.4,29.93,NW,325,5.0,11.0,70,0.00,,---,0.00,VWS V14.01,2013-01-21 18:25:00,
2013-01-21 13:30:00,7.3,-0.7,29.93,WNW,288,3.0,7.0,69,0.00,,---,0.00,VWS V14.01,2013-01-21 18:30:00,
2013-01-21 13:35:00,7.4,-1.2,29.92,WNW,296,2.0,14.0,67,0.00,,---,0.00,VWS V14.01,2013-01-21 18:35:00,
2013-01-21 13:40:00,7.4,-1.2,29.93,WNW,284,2.0,8.0,67,0.00,,---,0.00,VWS V14.01,2013-01-21 18:40:00,
2013-01-21 13:45:00,7.3,-1.3,29.92,NNW,345,0.0,12.0,67,0.00,,---,0.00,VWS V14.01,2013-01-21 18:45:00,
2013-01-21 13:50:00,7.4,-0.9,29.93,NNW,327,1.0,8.0,68,0.00,,---,0.00,VWS V14.01,2013-01-21 18:50:00,
2013-01-21 13:55:00,7.3,-1.0,29.93,NW,324,12.0,13.0,68,0.00,,---,0.00,VWS V14.01,2013-01-21 18:55:00,
2013-01-21 14:00:00,7.1,-1.2,29.93,WNW,286,3.0,5.0,68,0.00,,---,0.00,VWS V14.01,2013-01-21 19:00:00,
2013-01-21 14:05:00,7.1,-1.5,29.93,WNW,292,4.0,11.0,67,0.00,,---,0.00,VWS V14.01,2013-01-21 19:05:00,
2013-01-21 14:10:00,7.1,-1.2,29.93,WNW,290,4.0,10.0,68,0.00,,---,0.00,VWS V14.01,2013-01-21 19:10:00,
2013-01-21 14:15:00,7.3,-1.0,29.93,WSW,253,2.0,12.0,68,0.00,,---,0.00,VWS V14.01,2013-01-21 19:15:00,
2013-01-21 14:20:00,7.3,-1.3,29.93,NW,320,4.0,10.0,67,0.00,,---,0.00,VWS V14.01,2013-01-21 19:20:00,
2013-01-21 14:25:00,7.3,-1.3,29.93,West,270,6.0,10.0,67,0.00,,---,0.00,VWS V14.01,2013-01-21 19:25:00,
2013-01-21 14:30:00,7.3,-0.7,29.93,West,262,5.0,11.0,69,0.00,,---,0.00,VWS V14.01,2013-01-21 19:30:00,
2013-01-21 14:31:00,7.3,-0.7,29.93,WNW,290,3.0,6.0,69,0.00,,---,0.00,VWS V14.01,2013-01-21 19:31:00,
2013-01-21 14:36:00,7.1,-0.6,29.93,NNW,338,9.0,12.0,70,0.00,,---,0.00,VWS V14.01,2013-01-21 19:36:00,
2013-01-21 14:40:00,7.1,-0.3,29.93,WNW,293,2.0,6.0,71,0.00,,---,0.00,VWS V14.01,2013-01-21 19:40:00,
2013-01-21 14:45:00,6.9,-0.5,29.93,West,264,11.0,18.0,71,0.00,,---,0.00,VWS V14.01,2013-01-21 19:45:00,
2013-01-21 14:50:00,6.7,-0.4,29.94,WSW,239,4.0,7.0,72,0.00,,---,0.00,VWS V14.01,2013-01-21 19:50:00,
2013-01-21 14:55:00,6.7,-0.4,29.94,WNW,303,4.0,11.0,72,0.00,,---,0.00,VWS V14.01,2013-01-21 19:55:00,
2013-01-21 15:00:00,6.7,-0.1,29.94,NW,321,5.0,9.0,73,0.00,,---,0.00,VWS V14.01,2013-01-21 20:00:00,
2013-01-21 15:05:00,6.7,-0.1,29.94,WNW,289,4.0,10.0,73,0.00,,---,0.00,VWS V14.01,2013-01-21 20:05:00,
2013-01-21 15:10:00,6.9,0.1,29.94,WNW,299,4.0,10.0,73,0.00,,---,0.00,VWS V14.01,2013-01-21 20:10:00,
2013-01-21 15:11:00,6.9,0.4,29.94,WNW,302,7.0,9.0,74,0.00,,---,0.00,VWS V14.01,2013-01-21 20:11:00,
2013-01-21 15:16:00,6.9,0.4,29.94,WNW,299,2.0,9.0,74,0.00,,---,0.00,VWS V14.01,2013-01-21 20:16:00,
2013-01-21 15:20:00,6.9,0.1,29.94,West,264,2.0,14.0,73,0.00,,---,0.00,VWS V14.01,2013-01-21 20:20:00,
2013-01-21 15:21:00,6.9,0.1,29.94,NW,314,5.0,9.0,73,0.00,,---,0.00,VWS V14.01,2013-01-21 20:21:00,
2013-01-21 15:26:00,6.9,0.1,29.94,WNW,288,10.0,10.0,73,0.00,,---,0.00,VWS V14.01,2013-01-21 20:26:00,
2013-01-21 15:30:00,6.9,0.1,29.94,West,274,9.0,10.0,73,0.00,,---,0.00,VWS V14.01,2013-01-21 20:30:00,
2013-01-21 15:31:00,6.9,0.1,29.95,WSW,254,11.0,12.0,73,0.00,,---,0.00,VWS V14.01,2013-01-21 20:31:00,
2013-01-21 15:36:00,6.7,0.2,29.95,West,276,6.0,15.0,74,0.00,,---,0.00,VWS V14.01,2013-01-21 20:36:00,
2013-01-21 15:40:00,6.6,0.4,29.95,NW,322,3.0,15.0,75,0.00,,---,0.00,VWS V14.01,2013-01-21 20:40:00,
2013-01-21 15:41:00,6.6,0.4,29.95,North,351,4.0,7.0,75,0.00,,---,0.00,VWS V14.01,2013-01-21 20:41:00,
2013-01-21 15:46:00,6.6,0.4,29.95,WNW,302,5.0,14.0,75,0.00,,---,0.00,VWS V14.01,2013-01-21 20:46:00,
2013-01-21 15:50:00,6.4,0.2,29.95,West,274,4.0,14.0,75,0.00,,---,0.00,VWS V14.01,2013-01-21 20:50:00,
2013-01-21 15:51:00,6.4,0.5,29.95,WNW,282,3.0,11.0,76,0.00,,---,0.00,VWS V14.01,2013-01-21 20:51:00,
2013-01-21 15:56:00,6.4,0.7,29.95,WNW,289,6.0,11.0,77,0.00,,---,0.00,VWS V14.01,2013-01-21 20:56:00,
2013-01-21 16:00:00,6.2,0.6,29.96,West,263,5.0,11.0,77,0.00,,---,0.00,VWS V14.01,2013-01-21 21:00:00,
2013-01-21 16:01:00,6.2,0.6,29.95,NW,323,5.0,7.0,77,0.00,,---,0.00,VWS V14.01,2013-01-21 21:01:00,
2013-01-21 16:06:00,6.0,0.3,29.96,WNW,294,2.0,11.0,77,0.00,,---,0.00,VWS V14.01,2013-01-21 21:06:00,
2013-01-21 16:10:00,6.0,0.1,29.96,West,271,1.0,11.0,76,0.00,,---,0.00,VWS V14.01,2013-01-21 21:10:00,
2013-01-21 16:11:00,6.0,0.1,29.96,WNW,293,2.0,7.0,76,0.00,,---,0.00,VWS V14.01,2013-01-21 21:11:00,
2013-01-21 16:16:00,6.0,0.3,29.96,NW,315,5.0,10.0,77,0.00,,---,0.00,VWS V14.01,2013-01-21 21:16:00,
2013-01-21 16:20:00,6.0,0.3,29.96,NW,307,5.0,10.0,77,0.00,,---,0.00,VWS V14.01,2013-01-21 21:20:00,
2013-01-21 16:21:00,6.0,0.3,29.96,West,276,2.0,10.0,77,0.00,,---,0.00,VWS V14.01,2013-01-21 21:21:00,
2013-01-21 16:26:00,5.9,0.3,29.96,NW,325,7.0,10.0,77,0.00,,---,0.00,VWS V14.01,2013-01-21 21:26:00,
2013-01-21 16:30:00,5.8,0.2,29.96,West,273,3.0,10.0,77,0.00,,---,0.00,VWS V14.01,2013-01-21 21:30:00,
2013-01-21 16:31:00,5.8,0.2,29.96,WNW,289,2.0,5.0,77,0.00,,---,0.00,VWS V14.01,2013-01-21 21:31:00,
2013-01-21 16:36:00,5.8,0.2,29.96,WNW,302,4.0,11.0,77,0.00,,---,0.00,VWS V14.01,2013-01-21 21:36:00,
2013-01-21 16:40:00,5.7,0.1,29.96,West,268,2.0,12.0,77,0.00,,---,0.00,VWS V14.01,2013-01-21 21:40:00,
2013-01-21 16:41:00,5.7,0.1,29.96,WSW,249,6.0,8.0,77,0.00,,---,0.00,VWS V14.01,2013-01-21 21:41:00,
2013-01-21 16:46:00,5.7,0.1,29.96,WNW,286,4.0,10.0,77,0.00,,---,0.00,VWS V14.01,2013-01-21 21:46:00,
2013-01-21 16:50:00,5.6,0.0,29.97,WNW,290,3.0,10.0,77,0.00,,---,0.00,VWS V14.01,2013-01-21 21:50:00,
2013-01-21 16:51:00,5.7,0.1,29.97,NW,306,3.0,10.0,77,0.00,,---,0.00,VWS V14.01,2013-01-21 21:51:00,
2013-01-21 16:56:00,5.7,0.1,29.97,WNW,298,4.0,10.0,77,0.00,,---,0.00,VWS V14.01,2013-01-21 21:56:00,
2013-01-21 17:00:00,5.6,0.0,29.96,West,278,2.0,10.0,77,0.00,,---,0.00,VWS V14.01,2013-01-21 22:00:00,
2013-01-21 17:01:00,5.7,0.1,29.97,NW,307,2.0,5.0,77,0.00,,---,0.00,VWS V14.01,2013-01-21 22:01:00,
2013-01-21 17:06:00,5.7,0.1,29.97,SW,228,8.0,10.0,77,0.00,,---,0.00,VWS V14.01,2013-01-21 22:06:00,
2013-01-21 17:10:00,5.7,0.1,29.97,WNW,292,3.0,10.0,77,0.00,,---,0.00,VWS V14.01,2013-01-21 22:10:00,
2013-01-21 17:11:00,5.6,0.0,29.97,West,278,3.0,9.0,77,0.00,,---,0.00,VWS V14.01,2013-01-21 22:11:00,
2013-01-21 17:16:00,5.5,-0.4,29.97,WSW,247,4.0,9.0,76,0.00,,---,0.00,VWS V14.01,2013-01-21 22:16:00,
2013-01-21 17:20:00,5.5,-0.4,29.97,West,276,4.0,9.0,76,0.00,,---,0.00,VWS V14.01,2013-01-21 22:20:00,
2013-01-21 17:21:00,5.5,-0.4,29.97,West,278,2.0,5.0,76,0.00,,---,0.00,VWS V14.01,2013-01-21 22:21:00,
2013-01-21 17:26:00,5.5,-0.7,29.97,SW,232,1.0,9.0,75,0.00,,---,0.00,VWS V14.01,2013-01-21 22:26:00,
2013-01-21 17:30:00,5.4,-0.8,29.97,WSW,246,2.0,9.0,75,0.00,,---,0.00,VWS V14.01,2013-01-21 22:30:00,
2013-01-21 17:31:00,5.3,-0.9,29.97,WSW,255,5.0,6.0,75,0.00,,---,0.00,VWS V14.01,2013-01-21 22:31:00,
2013-01-21 17:36:00,5.5,-0.4,29.97,WSW,237,3.0,10.0,76,0.00,,---,0.00,VWS V14.01,2013-01-21 22:36:00,
2013-01-21 17:40:00,5.3,-0.6,29.97,West,274,4.0,13.0,76,0.00,,---,0.00,VWS V14.01,2013-01-21 22:40:00,
2013-01-21 17:41:00,5.3,-0.6,29.97,WSW,245,6.0,6.0,76,0.00,,---,0.00,VWS V14.01,2013-01-21 22:41:00,
2013-01-21 17:46:00,5.3,-0.6,29.97,WNW,290,10.0,14.0,76,0.00,,---,0.00,VWS V14.01,2013-01-21 22:46:00,
2013-01-21 17:50:00,5.3,-0.9,29.97,West,262,6.0,14.0,75,0.00,,---,0.00,VWS V14.01,2013-01-21 22:50:00,
2013-01-21 17:51:00,5.3,-0.6,29.97,WSW,254,6.0,10.0,76,0.00,,---,0.00,VWS V14.01,2013-01-21 22:51:00,
2013-01-21 17:56:00,5.3,-0.6,29.98,WNW,285,7.0,10.0,76,0.00,,---,0.00,VWS V14.01,2013-01-21 22:56:00,
2013-01-21 18:00:00,5.3,-0.6,29.98,WNW,284,5.0,10.0,76,0.00,,---,0.00,VWS V14.01,2013-01-21 23:00:00,
2013-01-21 18:01:00,5.3,-0.6,29.98,WSW,250,4.0,8.0,76,0.00,,---,0.00,VWS V14.01,2013-01-21 23:01:00,
2013-01-21 18:06:00,5.3,-0.6,29.98,WSW,256,4.0,12.0,76,0.00,,---,0.00,VWS V14.01,2013-01-21 23:06:00,
2013-01-21 18:10:00,5.3,-0.9,29.97,West,271,1.0,12.0,75,0.00,,---,0.00,VWS V14.01,2013-01-21 23:10:00,
2013-01-21 18:11:00,5.3,-0.6,29.98,WNW,294,3.0,6.0,76,0.00,,---,0.00,VWS V14.01,2013-01-21 23:11:00,
2013-01-21 18:16:00,5.3,-0.6,29.98,WSW,251,5.0,9.0,76,0.00,,---,0.00,VWS V14.01,2013-01-21 23:16:00,
2013-01-21 18:20:00,5.3,-0.9,29.98,WNW,284,5.0,9.0,75,0.00,,---,0.00,VWS V14.01,2013-01-21 23:20:00,
2013-01-21 18:21:00,5.3,-0.9,29.98,West,262,0.0,8.0,75,0.00,,---,0.00,VWS V14.01,2013-01-21 23:21:00,
2013-01-21 18:26:00,5.3,-0.9,29.98,NW,306,2.0,8.0,75,0.00,,---,0.00,VWS V14.01,2013-01-21 23:26:00,
2013-01-21 18:30:00,5.3,-0.9,29.98,West,261,2.0,8.0,75,0.00,,---,0.00,VWS V14.01,2013-01-21 23:30:00,
2013-01-21 18:31:00,5.3,-0.9,29.98,WNW,295,3.0,7.0,75,0.00,,---,0.00,VWS V14.01,2013-01-21 23:31:00,
2013-01-21 18:36:00,5.3,-0.6,29.98,West,273,7.0,9.0,76,0.00,,---,0.00,VWS V14.01,2013-01-21 23:36:00,
2013-01-21 18:40:00,5.3,-0.6,29.99,WSW,250,2.0,9.0,76,0.00,,---,0.00,VWS V14.01,2013-01-21 23:40:00,
2013-01-21 18:41:00,5.3,-0.6,29.98,WNW,299,0.0,7.0,76,0.00,,---,0.00,VWS V14.01,2013-01-21 23:41:00,
2013-01-21 18:46:00,5.3,-0.3,29.99,WNW,299,4.0,13.0,77,0.00,,---,0.00,VWS V14.01,2013-01-21 23:46:00,
2013-01-21 18:50:00,5.3,-0.3,29.99,WNW,302,3.0,13.0,77,0.00,,---,0.00,VWS V14.01,2013-01-21 23:50:00,
2013-01-21 18:51:00,5.3,-0.6,29.99,WNW,288,3.0,5.0,76,0.00,,---,0.00,VWS V14.01,2013-01-21 23:51:00,
2013-01-21 18:56:00,5.3,-0.3,29.99,WNW,297,5.0,7.0,77,0.00,,---,0.00,VWS V14.01,2013-01-21 23:56:00,
2013-01-21 19:00:00,5.3,-0.3,29.99,NW,313,4.0,9.0,77,0.00,,---,0.00,VWS V14.01,2013-01-22 00:00:00,
2013-01-21 19:01:00,5.3,-0.3,29.99,NNE,19,3.0,9.0,77,0.00,,---,0.00,VWS V14.01,2013-01-22 00:01:00,
2013-01-21 19:07:00,5.3,-0.3,29.99,WNW,286,6.0,9.0,77,0.00,,---,0.00,VWS V14.01,2013-01-22 00:07:00,
2013-01-21 19:10:00,5.3,-0.3,29.99,WNW,294,3.0,9.0,77,0.00,,---,0.00,VWS V14.01,2013-01-22 00:10:00,
2013-01-21 19:12:00,5.3,-0.6,30.00,NNW,338,4.0,9.0,76,0.00,,---,0.00,VWS V14.01,2013-01-22 00:12:00,
2013-01-21 19:17:00,5.1,-0.8,30.00,North,1,1.0,9.0,76,0.00,,---,0.00,VWS V14.01,2013-01-22 00:17:00,
2013-01-21 19:20:00,5.1,-0.8,30.00,NW,309,2.0,9.0,76,0.00,,---,0.00,VWS V14.01,2013-01-22 00:20:00,
2013-01-21 19:22:00,5.1,-0.8,30.00,WNW,290,4.0,6.0,76,0.00,,---,0.00,VWS V14.01,2013-01-22 00:22:00,
2013-01-21 19:27:00,4.9,-1.3,30.00,NNW,334,1.0,11.0,75,0.00,,---,0.00,VWS V14.01,2013-01-22 00:27:00,
2013-01-21 19:30:00,4.9,-1.3,30.00,NNW,338,3.0,11.0,75,0.00,,---,0.00,VWS V14.01,2013-01-22 00:30:00,
2013-01-21 19:32:00,4.9,-1.6,30.00,WNW,300,3.0,5.0,74,0.00,,---,0.00,VWS V14.01,2013-01-22 00:32:00,
2013-01-21 19:37:00,4.9,-1.3,30.00,NNW,328,4.0,7.0,75,0.00,,---,0.00,VWS V14.01,2013-01-22 00:37:00,
2013-01-21 19:40:00,4.9,-1.3,30.00,North,355,8.0,9.0,75,0.00,,---,0.00,VWS V14.01,2013-01-22 00:40:00,
2013-01-21 19:42:00,4.7,-1.5,30.00,NNW,336,4.0,9.0,75,0.00,,---,0.00,VWS V14.01,2013-01-22 00:42:00,
2013-01-21 19:47:00,4.7,-1.5,30.01,North,0,1.0,9.0,75,0.00,,---,0.00,VWS V14.01,2013-01-22 00:47:00,
2013-01-21 19:50:00,4.8,-1.6,30.01,North,0,2.0,9.0,74,0.00,,---,0.00,VWS V14.01,2013-01-22 00:50:00,
2013-01-21 19:52:00,4.7,-1.5,30.00,NW,311,6.0,10.0,75,0.00,,---,0.00,VWS V14.01,2013-01-22 00:52:00,
2013-01-21 19:57:00,4.7,-1.5,30.00,NW,312,9.0,13.0,75,0.00,,---,0.00,VWS V14.01,2013-01-22 00:57:00,
2013-01-21 20:00:00,4.5,-1.7,30.01,NNW,340,5.0,13.0,75,0.00,,---,0.00,VWS V14.01,2013-01-22 01:00:00,
2013-01-21 20:02:00,4.5,-1.4,30.00,WNW,287,2.0,13.0,76,0.00,,---,0.00,VWS V14.01,2013-01-22 01:02:00,
2013-01-21 20:07:00,4.4,-1.8,30.01,NW,319,4.0,14.0,75,0.00,,---,0.00,VWS V14.01,2013-01-22 01:07:00,
2013-01-21 20:10:00,4.3,-1.6,30.01,WSW,251,2.0,14.0,76,0.00,,---,0.00,VWS V14.01,2013-01-22 01:10:00,
2013-01-21 20:12:00,4.3,-1.6,30.01,WNW,288,4.0,6.0,76,0.00,,---,0.00,VWS V14.01,2013-01-22 01:12:00,
2013-01-21 20:17:00,4.2,-1.7,30.01,NNW,328,5.0,12.0,76,0.00,,---,0.00,VWS V14.01,2013-01-22 01:17:00,
2013-01-21 20:20:00,4.1,-1.8,30.01,NW,315,9.0,12.0,76,0.00,,---,0.00,VWS V14.01,2013-01-22 01:20:00,
2013-01-21 20:22:00,4.0,-1.6,30.01,NW,309,5.0,9.0,77,0.00,,---,0.00,VWS V14.01,2013-01-22 01:22:00,
2013-01-21 20:27:00,4.0,-1.6,30.02,NW,311,6.0,12.0,77,0.00,,---,0.00,VWS V14.01,2013-01-22 01:27:00,
2013-01-21 20:30:00,3.8,-1.8,30.02,NW,314,5.0,12.0,77,0.00,,---,0.00,VWS V14.01,2013-01-22 01:30:00,
2013-01-21 20:32:00,3.8,-1.8,30.02,WNW,287,6.0,10.0,77,0.00,,---,0.00,VWS V14.01,2013-01-22 01:32:00,
2013-01-21 20:37:00,3.8,-1.8,30.02,WSW,252,4.0,10.0,77,0.00,,---,0.00,VWS V14.01,2013-01-22 01:37:00,
2013-01-21 20:40:00,3.8,-1.8,30.02,NW,322,6.0,12.0,77,0.00,,---,0.00,VWS V14.01,2013-01-22 01:40:00,
2013-01-21 20:42:00,3.6,-2.0,30.02,West,269,5.0,9.0,77,0.00,,---,0.00,VWS V14.01,2013-01-22 01:42:00,
2013-01-21 20:47:00,3.7,-1.9,30.02,NW,312,4.0,9.0,77,0.00,,---,0.00,VWS V14.01,2013-01-22 01:47:00,
2013-01-21 20:50:00,3.4,-2.2,30.03,WNW,299,2.0,9.0,77,0.00,,---,0.00,VWS V14.01,2013-01-22 01:50:00,
2013-01-21 20:52:00,3.4,-2.2,30.02,North,354,7.0,11.0,77,0.00,,---,0.00,VWS V14.01,2013-01-22 01:52:00,
2013-01-21 20:57:00,3.3,-2.3,30.03,NW,305,3.0,13.0,77,0.00,,---,0.00,VWS V14.01,2013-01-22 01:57:00,
2013-01-21 21:00:00,3.2,-2.4,30.02,NW,306,4.0,13.0,77,0.00,,---,0.00,VWS V14.01,2013-01-22 02:00:00,
2013-01-21 21:02:00,3.0,-2.6,30.03,NW,315,3.0,11.0,77,0.00,,---,0.00,VWS V14.01,2013-01-22 02:02:00,
2013-01-21 21:07:00,2.9,-2.9,30.03,NNW,328,2.0,11.0,76,0.00,,---,0.00,VWS V14.01,2013-01-22 02:07:00,
2013-01-21 21:10:00,2.7,-3.1,30.03,NNW,343,5.0,11.0,76,0.00,,---,0.00,VWS V14.01,2013-01-22 02:10:00,
2013-01-21 21:12:00,2.7,-3.1,30.03,NNW,339,3.0,11.0,76,0.00,,---,0.00,VWS V14.01,2013-01-22 02:12:00,
2013-01-21 21:17:00,2.5,-3.3,30.03,NNW,336,5.0,13.0,76,0.00,,---,0.00,VWS V14.01,2013-01-22 02:17:00,
2013-01-21 21:20:00,2.5,-3.0,30.03,North,349,3.0,13.0,77,0.00,,---,0.00,VWS V14.01,2013-01-22 02:20:00,
2013-01-21 21:22:00,2.5,-3.3,30.04,NNW,345,7.0,8.0,76,0.00,,---,0.00,VWS V14.01,2013-01-22 02:22:00,
2013-01-21 21:27:00,2.3,-3.2,30.03,NNW,329,5.0,12.0,77,0.00,,---,0.00,VWS V14.01,2013-01-22 02:27:00,
2013-01-21 21:30:00,2.3,-3.5,30.04,NNW,345,6.0,12.0,76,0.00,,---,0.00,VWS V14.01,2013-01-22 02:30:00,
2013-01-21 21:32:00,2.3,-3.5,30.04,NW,324,8.0,14.0,76,0.00,,---,0.00,VWS V14.01,2013-01-22 02:32:00,
2013-01-21 21:37:00,2.1,-3.7,30.04,NNW,337,5.0,14.0,76,0.00,,---,0.00,VWS V14.01,2013-01-22 02:37:00,
2013-01-21 21:40:00,2.1,-3.7,30.04,NW,325,2.0,14.0,76,0.00,,---,0.00,VWS V14.01,2013-01-22 02:40:00,
2013-01-21 21:42:00,1.9,-3.9,30.04,NNW,333,5.0,11.0,76,0.00,,---,0.00,VWS V14.01,2013-01-22 02:42:00,
2013-01-21 21:47:00,1.9,-3.9,30.04,NNW,342,2.0,11.0,76,0.00,,---,0.00,VWS V14.01,2013-01-22 02:47:00,
2013-01-21 21:50:00,1.9,-4.2,30.04,NNW,336,4.0,11.0,75,0.00,,---,0.00,VWS V14.01,2013-01-22 02:50:00,
2013-01-21 21:52:00,1.9,-3.9,30.04,NNW,332,4.0,6.0,76,0.00,,---,0.00,VWS V14.01,2013-01-22 02:52:00,
2013-01-21 21:57:00,1.9,-4.2,30.04,NNW,334,3.0,9.0,75,0.00,,---,0.00,VWS V14.01,2013-01-22 02:57:00,
2013-01-21 22:00:00,1.7,-4.1,30.04,NW,322,2.0,9.0,76,0.00,,---,0.00,VWS V14.01,2013-01-22 03:00:00,
2013-01-21 22:02:00,1.8,-4.0,30.04,NW,324,2.0,5.0,76,0.00,,---,0.00,VWS V14.01,2013-01-22 03:02:00,
2013-01-21 22:07:00,1.7,-4.4,30.04,NNW,328,4.0,7.0,75,0.00,,---,0.00,VWS V14.01,2013-01-22 03:07:00,
2013-01-21 22:10:00,1.7,-4.4,30.04,NW,315,4.0,9.0,75,0.00,,---,0.00,VWS V14.01,2013-01-22 03:10:00,
2013-01-21 22:12:00,1.7,-4.4,30.04,NE,34,2.0,8.0,75,0.00,,---,0.00,VWS V14.01,2013-01-22 03:12:00,
2013-01-21 22:17:00,1.5,-4.6,30.04,NNW,339,5.0,8.0,75,0.00,,---,0.00,VWS V14.01,2013-01-22 03:17:00,
2013-01-21 22:20:00,1.5,-4.6,30.04,WSW,254,2.0,8.0,75,0.00,,---,0.00,VWS V14.01,2013-01-22 03:20:00,
2013-01-21 22:22:00,1.6,-4.5,30.05,North,0,2.0,3.0,75,0.00,,---,0.00,VWS V14.01,2013-01-22 03:22:00,
2013-01-21 22:27:00,1.5,-4.6,30.05,WNW,302,0.0,8.0,75,0.00,,---,0.00,VWS V14.01,2013-01-22 03:27:00,
2013-01-21 22:30:00,1.5,-4.6,30.05,West,269,0.0,8.0,75,0.00,,---,0.00,VWS V14.01,2013-01-22 03:30:00,
2013-01-21 22:32:00,1.3,-4.8,30.04,North,352,0.0,7.0,75,0.00,,---,0.00,VWS V14.01,2013-01-22 03:32:00,
2013-01-21 22:37:00,1.3,-4.8,30.05,West,276,3.0,10.0,75,0.00,,---,0.00,VWS V14.01,2013-01-22 03:37:00,
2013-01-21 22:40:00,1.4,-4.7,30.05,NW,324,3.0,10.0,75,0.00,,---,0.00,VWS V14.01,2013-01-22 03:40:00,
2013-01-21 22:42:00,1.3,-4.8,30.05,NW,318,8.0,9.0,75,0.00,,---,0.00,VWS V14.01,2013-01-22 03:42:00,
2013-01-21 22:47:00,1.3,-4.8,30.05,NNW,338,1.0,13.0,75,0.00,,---,0.00,VWS V14.01,2013-01-22 03:47:00,
2013-01-21 22:50:00,1.3,-4.8,30.05,WNW,298,3.0,13.0,75,0.00,,---,0.00,VWS V14.01,2013-01-22 03:50:00,
2013-01-21 22:52:00,1.3,-4.8,30.05,West,275,6.0,10.0,75,0.00,,---,0.00,VWS V14.01,2013-01-22 03:52:00,
2013-01-21 22:57:00,1.2,-4.9,30.05,West,277,2.0,10.0,75,0.00,,---,0.00,VWS V14.01,2013-01-22 03:57:00,
2013-01-21 23:00:00,1.1,-5.2,30.05,WNW,282,5.0,10.0,74,0.00,,---,0.00,VWS V14.01,2013-01-22 04:00:00,
2013-01-21 23:02:00,1.1,-5.2,30.05,WNW,295,2.0,6.0,74,0.00,,---,0.00,VWS V14.01,2013-01-22 04:02:00,
2013-01-21 23:07:00,1.2,-5.1,30.05,NW,312,3.0,7.0,74,0.00,,---,0.00,VWS V14.01,2013-01-22 04:07:00,
2013-01-21 23:10:00,1.2,-5.1,30.05,NNW,346,4.0,9.0,74,0.00,,---,0.00,VWS V14.01,2013-01-22 04:10:00,
2013-01-21 23:13:00,1.2,-5.1,30.05,NW,320,5.0,8.0,74,0.00,,---,0.00,VWS V14.01,2013-01-22 04:13:00,
2013-01-21 23:18:00,1.1,-5.2,30.06,NNW,343,3.0,8.0,74,0.00,,---,0.00,VWS V14.01,2013-01-22 04:18:00,
2013-01-21 23:20:00,1.2,-5.1,30.05,NW,320,1.0,8.0,74,0.00,,---,0.00,VWS V14.01,2013-01-22 04:20:00,
2013-01-21 23:23:00,1.1,-5.2,30.05,WNW,285,4.0,8.0,74,0.00,,---,0.00,VWS V14.01,2013-01-22 04:23:00,
2013-01-21 23:28:00,1.1,-5.0,30.05,NW,305,2.0,9.0,75,0.00,,---,0.00,VWS V14.01,2013-01-22 04:28:00,
2013-01-21 23:30:00,1.1,-5.0,30.05,WNW,299,1.0,9.0,75,0.00,,---,0.00,VWS V14.01,2013-01-22 04:30:00,
2013-01-21 23:33:00,1.0,-5.3,30.05,WSW,248,1.0,7.0,74,0.00,,---,0.00,VWS V14.01,2013-01-22 04:33:00,
2013-01-21 23:38:00,0.9,-5.2,30.06,WNW,291,2.0,7.0,75,0.00,,---,0.00,VWS V14.01,2013-01-22 04:38:00,
2013-01-21 23:40:00,0.9,-5.4,30.06,WNW,291,0.0,7.0,74,0.00,,---,0.00,VWS V14.01,2013-01-22 04:40:00,
2013-01-21 23:43:00,0.9,-5.4,30.05,WSW,254,4.0,5.0,74,0.00,,---,0.00,VWS V14.01,2013-01-22 04:43:00,
2013-01-21 23:48:00,0.9,-5.2,30.06,NW,305,4.0,7.0,75,0.00,,---,0.00,VWS V14.01,2013-01-22 04:48:00,
2013-01-21 23:50:00,1.0,-5.3,30.05,NW,307,3.0,7.0,74,0.00,,---,0.00,VWS V14.01,2013-01-22 04:50:00,
2013-01-21 23:53:00,0.9,-5.4,30.06,NW,308,1.0,5.0,74,0.00,,---,0.00,VWS V14.01,2013-01-22 04:53:00,
2013-01-21 23:58:00,1.0,-5.3,30.05,West,271,2.0,8.0,74,0.00,,---,0.00,VWS V14.01,2013-01-22 04:58:00,